TimeCDT,TemperatureF,Dew PointF,Humidity,Sea Level PressureIn,VisibilityMPH,Wind Direction,Wind SpeedMPH,Gust SpeedMPH,PrecipitationIn,Events,Conditions,WindDirDegrees,DateUTC
12:12 AM,39.2,29.7,69,29.47,10.0,SE,13.8,17.3,N/A,,Overcast,140,2014-03-27 05:12:00
12:32 AM,39.6,30.7,71,29.47,10.0,SE,13.8,-,N/A,,Overcast,140,2014-03-27 05:32:00
12:52 AM,39.4,31.1,72,29.47,10.0,SE,11.5,-,N/A,,Overcast,140,2014-03-27 05:52:00
1:12 AM,39.7,32.0,74,29.47,10.0,SSE,3.5,-,N/A,,Overcast,150,2014-03-27 06:12:00
1:32 AM,40.3,34.0,78,29.47,10.0,South,8.1,-,N/A,,Overcast,170,2014-03-27 06:32:00
1:52 AM,41.9,36.7,82,29.47,10.0,South,8.1,-,N/A,,Overcast,180,2014-03-27 06:52:00
2:12 AM,41.0,36.3,83,29.47,10.0,SSE,8.1,-,N/A,,Overcast,160,2014-03-27 07:12:00
2:32 AM,41.0,36.5,84,29.47,10.0,SE,6.9,-,N/A,,Overcast,140,2014-03-27 07:32:00
2:52 AM,40.3,35.8,84,29.47,10.0,Calm,Calm,-,N/A,,Overcast,0,2014-03-27 07:52:00
3:12 AM,40.1,36.0,85,29.47,10.0,SE,6.9,-,N/A,,Overcast,140,2014-03-27 08:12:00
3:32 AM,40.8,36.7,85,29.47,10.0,Calm,Calm,-,N/A,,Overcast,0,2014-03-27 08:32:00
3:52 AM,40.1,36.5,87,29.46,10.0,SE,4.6,-,N/A,,Overcast,140,2014-03-27 08:52:00
4:12 AM,39.7,36.5,88,29.46,10.0,SE,3.5,-,N/A,,Overcast,140,2014-03-27 09:12:00
4:33 AM,39.2,36.5,90,29.45,5.0,Calm,Calm,-,N/A,,Overcast,0,2014-03-27 09:33:00
4:52 AM,39.0,37.0,93,29.45,4.0,SSE,5.8,-,N/A,,Drizzle,150,2014-03-27 09:52:00
5:12 AM,38.8,37.4,95,29.45,3.0,Calm,Calm,-,N/A,Rain,Light Rain,0,2014-03-27 10:12:00
5:33 AM,38.8,37.8,96,29.45,3.0,SSE,4.6,-,N/A,Rain,Rain,160,2014-03-27 10:33:00
5:52 AM,38.8,37.9,97,29.45,2.5,Calm,Calm,-,N/A,Rain,Light Rain,0,2014-03-27 10:52:00
6:12 AM,38.5,37.6,97,29.45,2.5,Calm,Calm,-,N/A,,Light Drizzle,0,2014-03-27 11:12:00
6:32 AM,38.3,37.4,97,29.45,2.5,Calm,Calm,-,N/A,Rain,Light Rain,0,2014-03-27 11:32:00
6:52 AM,38.3,37.6,97,29.46,2.5,Calm,Calm,-,N/A,,Overcast,0,2014-03-27 11:52:00
7:12 AM,38.3,37.4,97,29.45,2.0,Calm,Calm,-,N/A,,Overcast,0,2014-03-27 12:12:00
7:32 AM,37.8,37.2,98,29.46,2.5,Calm,Calm,-,N/A,,Overcast,0,2014-03-27 12:32:00
7:52 AM,37.6,37.0,98,29.46,1.2,Calm,Calm,-,N/A,,Overcast,0,2014-03-27 12:52:00
8:12 AM,37.4,36.9,98,29.45,0.8,Calm,Calm,-,N/A,,Overcast,0,2014-03-27 13:12:00
8:32 AM,37.4,36.5,97,29.44,0.5,Calm,Calm,-,N/A,Fog,Fog,0,2014-03-27 13:32:00
8:52 AM,37.0,36.5,98,29.45,0.8,Calm,Calm,-,N/A,,Overcast,0,2014-03-27 13:52:00
9:12 AM,37.0,36.5,98,29.45,0.5,Calm,Calm,-,N/A,Fog,Fog,0,2014-03-27 14:12:00
9:32 AM,36.9,36.5,99,29.45,0.8,Calm,Calm,-,N/A,Rain,Light Rain,0,2014-03-27 14:32:00
9:52 AM,36.9,36.5,99,29.45,1.2,Calm,Calm,-,N/A,,Drizzle,0,2014-03-27 14:52:00
10:12 AM,36.9,36.5,99,29.45,1.2,Calm,Calm,-,N/A,Rain,Rain,0,2014-03-27 15:12:00
10:32 AM,37.0,36.7,99,29.46,1.5,Calm,Calm,-,0.03,Rain,Rain,0,2014-03-27 15:32:00
10:52 AM,37.0,36.7,99,29.46,2.5,Calm,Calm,-,0.04,Rain,Rain,0,2014-03-27 15:52:00
11:12 AM,37.4,36.9,98,29.46,2.5,Calm,Calm,-,0.03,Rain,Rain,0,2014-03-27 16:12:00
11:32 AM,36.9,36.5,99,29.47,3.0,Calm,Calm,-,0.05,Rain,Rain,0,2014-03-27 16:32:00
11:53 AM,36.5,36.1,99,29.47,2.0,North,5.8,-,0.08,Rain,Rain,10,2014-03-27 16:53:00
12:12 PM,34.9,34.3,98,29.47,4.0,North,12.7,-,N/A,Rain,Rain,360,2014-03-27 17:12:00
12:32 PM,32.9,32.2,97,29.48,1.2,North,8.1,-,0.06,Snow,Light Snow,360,2014-03-27 17:32:00
12:53 PM,32.2,32.0,99,29.48,0.8,North,9.2,16.1,0.12,Snow,Light Snow,10,2014-03-27 17:53:00
1:12 PM,32.0,32.0,100,29.48,0.8,North,12.7,16.1,N/A,Snow,Light Snow,10,2014-03-27 18:12:00
1:32 PM,32.0,31.6,99,29.48,1.0,North,12.7,18.4,N/A,Snow,Light Snow,10,2014-03-27 18:32:00
1:52 PM,31.8,31.1,97,29.49,0.5,North,8.1,19.6,0.02,Snow,Snow,360,2014-03-27 18:52:00
2:12 PM,31.5,30.9,98,29.49,0.5,NNE,10.4,-,0.01,Snow,Light Snow,20,2014-03-27 19:12:00
2:32 PM,31.1,30.7,99,29.50,0.8,North,10.4,16.1,0.01,Snow,Light Snow,10,2014-03-27 19:32:00
2:52 PM,31.1,30.6,98,29.51,0.5,NNE,10.4,17.3,0.03,Snow,Light Snow,20,2014-03-27 19:52:00
3:13 PM,30.9,30.2,97,29.52,0.8,North,8.1,-,N/A,Snow,Light Snow,360,2014-03-27 20:13:00
3:32 PM,30.7,29.7,96,29.52,0.8,North,11.5,-,N/A,Snow,Light Snow,10,2014-03-27 20:32:00
3:52 PM,30.7,29.3,94,29.52,1.0,North,12.7,18.4,N/A,Snow,Light Snow,10,2014-03-27 20:52:00
4:13 PM,30.9,29.3,94,29.53,1.5,North,10.4,19.6,N/A,Snow,Light Snow,360,2014-03-27 21:13:00
4:32 PM,30.6,29.1,94,29.54,1.2,North,10.4,18.4,N/A,Snow,Light Snow,360,2014-03-27 21:32:00
4:52 PM,30.6,28.8,93,29.55,2.5,North,12.7,19.6,0.01,Snow,Light Snow,360,2014-03-27 21:52:00
5:12 PM,30.2,28.4,93,29.57,4.0,North,12.7,20.7,N/A,Snow,Light Snow,360,2014-03-27 22:12:00
5:33 PM,30.2,27.9,91,29.57,5.0,North,12.7,18.4,N/A,,Overcast,360,2014-03-27 22:33:00
5:52 PM,30.2,27.5,90,29.58,5.0,North,12.7,23.0,N/A,,Overcast,360,2014-03-27 22:52:00
6:12 PM,30.2,27.9,91,29.59,10.0,North,13.8,19.6,N/A,,Overcast,360,2014-03-27 23:12:00
6:33 PM,30.7,28.0,90,29.60,10.0,North,5.8,18.4,N/A,,Overcast,360,2014-03-27 23:33:00
6:51 PM,31.1,28.0,88,29.61,10.0,North,12.7,-,N/A,,Overcast,350,2014-03-27 23:51:00
7:12 PM,31.1,27.5,87,29.62,10.0,North,12.7,17.3,N/A,,Overcast,360,2014-03-28 00:12:00
7:32 PM,31.1,26.8,84,29.64,10.0,North,12.7,20.7,N/A,,Overcast,360,2014-03-28 00:32:00
7:52 PM,31.1,26.8,84,29.65,10.0,North,10.4,19.6,N/A,,Overcast,360,2014-03-28 00:52:00
8:12 PM,31.1,26.4,83,29.66,10.0,North,9.2,18.4,N/A,,Overcast,360,2014-03-28 01:12:00
8:32 PM,31.1,26.2,82,29.69,10.0,North,8.1,16.1,N/A,,Overcast,350,2014-03-28 01:32:00
8:52 PM,30.9,25.7,81,29.70,10.0,North,9.2,16.1,N/A,,Overcast,360,2014-03-28 01:52:00
9:12 PM,30.9,25.5,80,29.71,10.0,North,10.4,17.3,N/A,,Overcast,360,2014-03-28 02:12:00
9:33 PM,30.7,25.3,80,29.72,10.0,North,8.1,-,N/A,,Overcast,350,2014-03-28 02:33:00
9:52 PM,30.4,24.4,79,29.73,10.0,North,10.4,17.3,N/A,,Overcast,350,2014-03-28 02:52:00
10:12 PM,30.2,24.4,79,29.74,10.0,North,9.2,-,N/A,,Overcast,350,2014-03-28 03:12:00
10:32 PM,30.2,24.4,79,29.76,10.0,Calm,Calm,-,N/A,,Overcast,0,2014-03-28 03:32:00
10:52 PM,30.2,23.9,77,29.77,10.0,Calm,Calm,-,N/A,,Overcast,0,2014-03-28 03:52:00
11:12 PM,30.2,24.3,79,29.79,10.0,North,8.1,-,N/A,,Overcast,350,2014-03-28 04:12:00
11:32 PM,30.2,23.9,77,29.80,10.0,NNW,3.5,-,N/A,,Overcast,340,2014-03-28 04:32:00
11:52 PM,30.0,23.9,78,29.80,10.0,NNW,9.2,-,N/A,,Overcast,340,2014-03-28 04:52:00